Showing default

DASH 1, 589

Orbit data source: Space-Track

DASH 1, 589 is an American payload satellite in LEO that was launched on Thu, 09 May 1963 UTC via an ATLAS AGENA B launch vehicle from the Air Force Western Test Range (AFWTR). Payload-class satellites include a variety of spacecraft equipped with specific instruments for various scientific and technological missions. These include communications satellites like Starlink; space stations such as the ISS; scientific satellites like the Hubble; Earth observation satellites from companies like Planet Labs, Umbra, and HawkEye 360; GPS; miniature CubeSats for education and research; and military/defense satellites.

Loading next visibility...
Identifier
589, 1963-014D
Orbit
LEO
Country
Flag of USUS
Related business
Manufacturer
MITLL?
Mission
Defense Calibration
Bus & Motor
DASH, Unknown motor
Mass
1 kg wet, 1 kg dry
Launch date (UTC)
1963-05-09 (62 years ago)
Launch vehicle
ATLAS AGENA B
Launch site
Air Force Western Test Range (AFWTR)
Object type
Payload
Rocket body
Debris
Shape & HBR
Sphere, Unknown HBR
Radar Cross Section
4.524 m², Large (>1 m²)

Expand to show TLE details & history
Last TLE update: 2 days ago

TLE from 2 days ago
0 DASH 1
1 00589U 63014D   25241.33367191  .00000027  00000-0  11504-1 0  9994
2 00589  87.3346 218.1741 0085613 275.1435  83.9653  8.65626974968560
Epoch: 2025-08-29T08:00Z
TLE epoch observation values (Epoch: 2025-08-29T08:00:29.253Z)
Latitude
-0.00003°
Longitude
120.26839°
Altitude
3,635.303 km
Speed
6.313 km/s
True Right ascension
14h 32m 41s
True Declination
0° 00' 00"
Sunlit
Object was in daylight at epoch
Visualization orbit readout
Latitude
Unknown
Longitude
Unknown
Altitude
Unknown
Speed
Unknown
Apparent Right ascension
Unknown
Apparent Declination
Unknown
Sunlit
N/A
Visualization observer readout
Local Sidereal Time
02:25:05
Azimuth
Unknown
Elevation
Unknown
Doppler factor
Unknown
Orbital elements
Apogee altitude
3,724.992 km
Perigee altitude
3,553.469 km
Semi-major axis
10,017.367 km
Eccentricity
0.00856
Inclination
87.3346°
RAAN
218.1741°
Arg. of periapsis
275.1435°
True anomaly
84.94197°
Mean anomaly
83.9653°
Eccentric anomaly
84.45353°
Mean motion
2.16477 °/min
Orbital period
166.3 mins
BSTAR
0.011504
Loading maneuver chart data...
Computing Atmospheric mass density...

Documentation

Showing up to 5 results
|